Weather History for Chillicothe, MO

Change the Weather History Date:

Saturday, March 9, 2013

  Actual Average (KIRK) Record (KIRK)
Temperature  
Mean Temperature 42 °F 38 °F  
Max Temperature 48 °F 48 °F 74 °F (1974)
Min Temperature 39 °F 28 °F 1 °F (1978)
Degree Days  
Heating Degree Days 22 27  
Month to date heating degree days 260  
Since 1 July heating degree days 4793  
Cooling Degree Days 0 0  
Month to date cooling degree days 0  
Year to date cooling degree days 0  
Moisture  
Dew Point 38 °F    
Average Humidity 84    
Maximum Humidity 97    
Minimum Humidity 68    
Precipitation  
Precipitation 0.92 in 0.08 in 1.78 in (2013)
Month to date precipitation 0.72  
Year to date precipitation 3.52  
Sea Level Pressure  
Sea Level Pressure 29.86 in    
Wind  
Wind Speed 8 mph (SE)    
Max Wind Speed 13 mph    
Max Gust Speed 21 mph    
T = Trace of Precipitation, MM = Missing Value Source: NWS Daily Summary

Daily Weather History Graph

Daily Weather History Graph

Search for Another Location

Airport:

Trip Planner

Search our weather history database for the weather conditions in past years. The results will help you decide how hot, cold, wet, or windy it might be!

Date:

Astronomy

Mar. 09, 2013 Rise Set
Actual Time 6:34 AM CST 6:15 PM CST
Civil Twilight 6:07 AM CST 6:42 PM CST
Nautical Twilight 5:36 AM CST 7:13 PM CST
Astronomical Twilight 5:05 AM CST 7:45 PM CST
Moon 4:59 AM CST (3/9) 4:18 PM CST (3/9)
Length of Visible Light 12h 34m
Length of Day
11h 40m
Waning Crescent, 5% of the Moon is Illuminated
Mar 9
Waning Crescent
Mar 11
New
Mar 19
First Quarter
Mar 27
Full
Apr 2
Last Quarter

Hourly Weather History & Observations

Time (CST) Temp. Windchill Dew Point Humidity Pressure Visibility Wind Dir Wind Speed Gust Speed Precip Events Conditions
12:52 AM 39.9 °F 33.9 °F 35.1 °F 83% 30.08 in - SE 9.2 mph - N/A   Unknown
1:52 AM 39.9 °F 32.9 °F 35.1 °F 83% 30.06 in - SE 11.5 mph - N/A   Unknown
2:52 AM 39.9 °F 32.5 °F 34.0 °F 79% 30.02 in - SE 12.7 mph 20.7 mph N/A   Unknown
3:52 AM 39.0 °F 31.8 °F 35.1 °F 86% 30.00 in - SSE 11.5 mph - N/A   Unknown
4:52 AM 39.0 °F 32.8 °F 36.0 °F 89% 29.99 in - SE 9.2 mph - N/A   Unknown
5:52 AM 39.0 °F 31.8 °F 36.0 °F 89% 29.97 in - SE 11.5 mph - N/A   Unknown
6:52 AM 39.9 °F 34.5 °F 36.0 °F 86% 29.96 in - SE 8.1 mph - N/A   Unknown
7:52 AM 39.9 °F 34.5 °F 37.0 °F 89% 29.95 in - SE 8.1 mph - N/A   Unknown
8:52 AM 41.0 °F 35.2 °F 37.0 °F 86% 29.92 in - SE 9.2 mph - N/A   Unknown
9:52 AM 42.1 °F 37.1 °F 37.0 °F 82% 29.90 in - SE 8.1 mph - N/A   Unknown
10:52 AM 43.0 °F 41.3 °F 37.0 °F 80% 29.90 in - SE 3.5 mph - N/A   Unknown
11:52 AM 44.1 °F 40.8 °F 37.0 °F 76% 29.86 in - ESE 5.8 mph - N/A   Unknown
12:52 PM 46.0 °F 43.1 °F 37.0 °F 71% 29.82 in - ESE 5.8 mph - N/A   Unknown
1:52 PM 46.0 °F 43.1 °F 37.0 °F 71% 29.78 in - East 5.8 mph - N/A   Unknown
2:52 PM 46.9 °F - 37.0 °F 68% 29.78 in - ESE 3.5 mph - N/A   Unknown
3:52 PM 46.0 °F 43.1 °F 37.0 °F 71% 29.77 in - SE 5.8 mph - N/A   Unknown
4:52 PM 45.0 °F 41.2 °F 41.0 °F 86% 29.74 in - ESE 6.9 mph - 0.21 in   Unknown
5:52 PM 43.0 °F 41.3 °F 39.9 °F 89% 29.75 in - North 3.5 mph - 0.04 in   Unknown
6:52 PM 42.1 °F 39.2 °F 39.9 °F 92% 29.77 in - ESE 4.6 mph - 0.11 in   Unknown
7:52 PM 44.1 °F 41.5 °F 42.1 °F 93% 29.74 in - ESE 4.6 mph - 0.13 in   Unknown
8:52 PM 44.1 °F - 42.1 °F 93% 29.74 in - Calm Calm - 0.19 in   Unknown
9:52 PM 45.0 °F 41.2 °F 44.1 °F 97% 29.71 in - ESE 6.9 mph - 0.16 in   Unknown
10:52 PM 46.9 °F - 46.0 °F 97% 29.69 in - SE 8.1 mph - 0.05 in   Unknown
11:52 PM 48.0 °F - - N/A% 29.68 in - SE 10.4 mph - 0.03 in   Unknown